KB2UHF-8 Weather Reports


time (UTC)temp
C
wind
direction
speed
KPH
gust
KPH
rain 1hr
cm
rain 24hr
cm
rain mn
cm
humidity
%
barometer
mb
20260903143516 21 270 8.0 14.5 0.13 0.61 0.61 97 1013.3
20260903142516 20 248 1.6 4.8 0.23 0.61 0.61 97 1013.4
20260903141516 20 270 3.2 9.7 0.28 0.61 0.61 96 1014.0
20260903140516 20 113 4.8 11.3 0.33 0.61 0.61 96 1013.5
20260903135515 20 90 4.8 6.4 0.41 0.58 0.58 96 1014.1
20260903134516 20 270 3.2 11.3 0.41 0.53 0.53 96 1014.8
20260903133536 21 248 8.0 12.9 0.43 0.48 0.48 96 1015.7
20260903132516 21 248 9.7 17.7 0.36 0.38 0.38 95 1015.9
20260903131536 21 225 11.3 17.7 0.33 0.33 0.33 95 1015.8
20260903130515 21 270 12.9 22.5 0.28 0.28 0.28 94 1015.2
20260903125515 21 248 11.3 20.9 0.18 0.18 0.18 93 1014.9
20260903124516 21 248 11.3 22.5 0.13 0.13 0.13 94 1014.8
20260903123556 21 270 12.9 24.1 0.05 0.05 0.05 94 1014.0
20260903122515 21 270 11.3 24.1 0.03 0.03 0.03 93 1014.2
20260903121536 22 270 8.0 19.3 0.00 0.00 0.00 93 1014.4
20260903120515 22 270 9.7 17.7 0.00 0.00 0.00 94 1014.2
20260903115535 22 270 9.7 17.7 0.00 0.00 0.00 95 1014.1
20260903114535 21 248 3.2 6.4 0.00 0.00 0.00 94 1014.2
20260903113515 22 248 6.4 16.1 0.00 0.00 0.00 94 1014.3
20260903112516 22 225 4.8 9.7 0.00 0.00 0.00 94 1013.7
20260903111516 22 203 1.6 4.8 0.00 0.00 0.00 94 1013.3
20260903110536 22 180 1.6 3.2 0.00 0.00 0.00 94 1013.2
20260903105515 22 225 1.6 4.8 0.00 0.00 0.00 94 1013.3
20260903104515 22 180 3.2 9.7 0.00 0.00 0.00 94 1013.2
20260903103516 22 0.0 0.0 0.00 0.00 0.00 95 1013.0
20260903102515 22 0.0 0.0 0.00 0.00 0.00 95 1012.9
20260903101517 21 0.0 4.8 0.00 0.00 0.00 95 1012.9
20260903100515 21 0.0 3.2 0.00 0.00 0.00 95 1012.8
20260903095515 21 0.0 0.0 0.00 0.00 0.00 95 1012.9
20260903094515 21 0.0 0.0 0.00 0.00 0.00 95 1012.9
20260903093515 21 0.0 0.0 0.00 0.00 0.00 95 1012.9
20260903092515 21 0.0 0.0 0.00 0.00 0.00 95 1012.8
20260903091536 21 0.0 0.0 0.00 0.00 0.00 95 1012.8
20260903090516 21 135 1.6 3.2 0.00 0.00 0.00 95 1012.8
20260903085515 21 135 1.6 4.8 0.00 0.00 0.00 95 1012.9
20260903084515 21 0.0 3.2 0.00 0.00 0.00 95 1013.0
20260903083515 21 135 1.6 3.2 0.00 0.00 0.00 95 1013.1
20260903082515 21 113 3.2 6.4 0.00 0.00 0.00 96 1012.8
20260903081517 21 135 3.2 6.4 0.00 0.00 0.00 96 1012.8
20260903080537 21 135 3.2 6.4 0.00 0.00 0.00 97 1012.6
20260903075537 20 90 3.2 4.8 0.00 0.00 0.00 96 1012.6
20260903074517 21 90 4.8 4.8 0.00 0.00 0.00 95 1012.6
20260903073517 21 113 4.8 9.7 0.00 0.00 0.00 96 1012.8
20260903072517 21 113 4.8 6.4 0.00 0.00 0.00 96 1012.9
20260903071537 20 90 4.8 9.7 0.00 0.00 0.00 97 1012.9
20260903070517 20 90 3.2 4.8 0.00 0.00 0.00 96 1013.0
20260903065517 20 90 3.2 4.8 0.00 0.00 0.00 96 1013.0
20260903064517 20 68 3.2 4.8 0.00 0.00 0.00 96 1013.1
20260903063517 21 90 3.2 4.8 0.00 0.00 0.00 96 1013.2
20260903062517 21 68 4.8 6.4 0.00 0.00 0.00 96 1013.1
20260903061517 21 0.0 4.8 0.00 0.00 0.00 96 1013.0
20260903060517 21 68 1.6 4.8 0.00 0.00 0.00 96 1013.2
20260903055517 21 68 3.2 4.8 0.00 0.00 0.00 96 1013.2
20260903054517 21 68 3.2 4.8 0.00 0.00 0.00 96 1013.3
20260903053517 21 0.0 0.0 0.00 0.00 0.00 96 1013.4
20260903052539 21 0.0 0.0 0.00 0.00 0.00 95 1013.4
20260903051517 21 0.0 0.0 0.00 0.00 0.00 95 1013.4
20260903050517 21 0.0 0.0 0.00 0.00 0.00 95 1013.4
20260903045516 21 0.0 0.0 0.00 0.00 0.00 95 1013.5
20260903044556 21 0.0 0.0 0.00 0.00 0.00 94 1013.4
20260903043536 21 0.0 0.0 0.00 0.00 0.00 94 1013.5
20260903042536 21 0.0 0.0 0.00 0.00 0.00 94 1013.5
20260903041516 21 0.0 0.0 0.00 0.00 0.00 94 1013.5
20260903040516 21 0.0 0.0 0.00 0.00 0.00 93 1013.4
20260903035516 21 0.0 0.0 0.00 0.00 0.00 92 1013.5
20260903034515 22 0.0 0.0 0.00 0.00 0.00 91 1013.5
20260903033515 22 0.0 0.0 0.00 0.00 0.00 89 1013.6
20260903032516 23 0.0 0.0 0.00 0.00 0.00 88 1013.5
20260903031535 23 0.0 0.0 0.00 0.00 0.00 87 1013.5
20260903030516 23 0.0 0.0 0.00 0.00 0.00 86 1013.6
20260903025515 23 0.0 0.0 0.00 0.00 0.00 86 1013.6
20260903024516 23 0.0 0.0 0.00 0.00 0.00 85 1013.6
20260903023516 23 0.0 0.0 0.00 0.00 0.00 85 1013.5
20260903022535 23 0.0 0.0 0.00 0.00 0.00 86 1013.6
20260903021515 23 0.0 0.0 0.00 0.00 0.00 84 1013.4
20260903020535 24 0.0 0.0 0.00 0.00 0.00 82 1013.2
20260903015537 24 0.0 0.0 0.00 0.00 0.00 81 1013.1
20260903014515 25 0.0 0.0 0.00 0.00 0.00 80 1012.8
20260903013517 25 0.0 0.0 0.00 0.00 0.00 79 1012.7
20260903012515 25 0.0 0.0 0.00 0.00 0.00 79 1012.7
20260903011515 25 0.0 0.0 0.00 0.00 0.00 79 1012.7
20260903010515 25 0.0 0.0 0.00 0.00 0.00 79 1012.7
20260903005515 26 0.0 0.0 0.00 0.00 0.00 78 1012.5
20260903004535 26 0.0 1.6 0.00 0.00 0.00 77 1012.7
20260903003515 26 0.0 3.2 0.00 0.00 0.00 75 1012.8
20260903002517 27 0.0 4.8 0.00 0.00 0.00 72 1012.7
20260903001515 28 0.0 1.6 0.00 0.00 0.00 70 1012.9
20260903000535 28 0.0 3.2 0.00 0.00 0.00 70 1012.8
20260902235515 28 0.0 0.0 0.00 0.00 0.00 70 1012.8
20260902234535 28 225 1.6 8.0 0.00 0.00 0.00 67 1012.8
20260902233535 29 0.0 3.2 0.00 0.00 0.00 66 1012.8
20260902232515 29 0.0 3.2 0.00 0.00 0.00 68 1012.9
20260902231515 29 225 1.6 8.0 0.00 0.00 0.00 67 1013.0
20260902230517 28 248 3.2 6.4 0.00 0.00 0.00 66 1013.0
20260902225519 29 248 4.8 6.4 0.00 0.00 0.00 65 1012.8
20260902224517 29 248 6.4 12.9 0.00 0.00 0.00 63 1012.8
20260902223517 30 225 3.2 6.4 0.00 0.00 0.00 63 1013.0
20260902222517 29 248 3.2 11.3 0.00 0.00 0.00 66 1013.1
20260902221517 30 225 4.8 12.9 0.00 0.00 0.00 65 1013.0
20260902220537 30 225 3.2 9.7 0.00 0.00 0.00 64 1013.1
20260902215537 30 248 3.2 6.4 0.00 0.00 0.00 64 1013.0
20260902214517 30 270 3.2 6.4 0.00 0.00 0.00 64 1013.0
20260902213517 30 225 6.4 14.5 0.00 0.00 0.00 62 1013.1
20260902212539 30 225 3.2 9.7 0.00 0.00 0.00 63 1013.0
20260902211537 30 225 3.2 11.3 0.00 0.00 0.00 61 1013.3
20260902210517 30 180 3.2 11.3 0.00 0.00 0.00 66 1013.2
20260902205517 30 225 3.2 9.7 0.00 0.00 0.00 66 1013.1
20260902204517 29 225 4.8 9.7 0.00 0.00 0.00 66 1013.3
20260902203517 28 225 4.8 12.9 0.00 0.00 0.00 70 1013.6
20260902202517 29 203 6.4 17.7 0.00 0.00 0.00 67 1013.8
20260902201517 28 225 8.0 17.7 0.00 0.00 0.00 68 1013.9
20260902200517 28 225 6.4 17.7 0.00 0.00 0.00 68 1013.9
20260902195517 28 225 6.4 14.5 0.00 0.00 0.00 68 1013.8
20260902194518 28 225 8.0 22.5 0.00 0.00 0.00 70 1013.9
20260902193517 28 248 8.0 20.9 0.00 0.00 0.00 71 1014.2
20260902192537 28 203 4.8 24.1 0.00 0.00 0.00 75 1014.2
20260902191517 27 225 9.7 16.1 0.00 0.00 0.00 77 1014.3
20260902190517 27 248 3.2 11.3 0.00 0.00 0.00 78 1014.4
20260902185517 27 225 6.4 14.5 0.00 0.00 0.00 78 1014.4
20260902184517 27 225 4.8 11.3 0.00 0.00 0.00 78 1014.3
20260902183517 27 248 4.8 12.9 0.00 0.00 0.00 76 1014.2
20260902182517 27 225 1.6 6.4 0.00 0.00 0.00 77 1014.4
20260902181517 27 225 3.2 9.7 0.00 0.00 0.00 77 1014.3
20260902180516 27 225 3.2 9.7 0.00 0.00 0.00 78 1014.0
20260902175517 27 225 3.2 6.4 0.00 0.00 0.00 78 1014.3
20260902174517 27 225 4.8 12.9 0.00 0.00 0.00 77 1014.4
20260902173517 27 180 4.8 12.9 0.00 0.00 0.00 76 1014.3
20260902172517 27 225 3.2 11.3 0.00 0.00 0.00 76 1014.5
20260902171517 27 225 4.8 9.7 0.00 0.00 0.00 78 1014.5
20260902170517 27 225 1.6 8.0 0.00 0.00 0.00 77 1014.6
20260902165538 27 158 6.4 11.3 0.00 0.00 0.00 78 1014.5
20260902164517 26 158 8.0 16.1 0.00 0.00 0.00 77 1014.4
20260902163517 26 135 4.8 9.7 0.00 0.00 0.00 79 1014.7
20260902162516 26 158 8.0 14.5 0.00 0.00 0.00 79 1014.7
20260902161516 26 180 6.4 14.5 0.00 0.00 0.00 78 1014.7
20260902160516 25 135 6.4 12.9 0.00 0.00 0.00 78 1014.6
20260902155517 25 158 3.2 8.0 0.00 0.00 0.00 81 1014.4
20260902154517 25 180 4.8 11.3 0.00 0.00 0.00 81 1014.5
20260902153517 24 113 4.8 12.9 0.00 0.00 0.00 83 1014.2
20260902152517 23 158 1.6 8.0 0.00 0.00 0.00 85 1014.5
20260902151516 23 113 8.0 12.9 0.00 0.00 0.00 83 1014.2
20260902150516 23 158 1.6 8.0 0.00 0.00 0.00 84 1014.6
20260902145516 22 135 3.2 11.3 0.00 0.00 0.00 85 1014.5
20260902144517 22 135 9.7 16.1 0.00 0.00 0.00 84 1014.3